DW1779 Weather Reports


Display with metric or nautical units.
time (UTC)temp
F
wind
direction
speed
MPH
gust
MPH
rain 1hr
in
rain 24hr
in
rain mn
in
humidity
%
barometer
mb
20260504234538 76 219 4.0 20.0 0.00 0.00 0.00 54 1004.1
20260504234037 76 175 6.0 20.0 0.00 0.00 0.00 53 1004.2
20260504233537 76 212 3.0 12.0 0.00 0.00 0.00 54 1004.2
20260504233044 76 221 6.0 15.0 0.00 0.00 0.00 53 1004.0
20260504232537 77 188 5.0 15.0 0.00 0.00 0.00 52 1004.2
20260504232036 77 175 5.0 15.0 0.00 0.00 0.00 52 1004.2
20260504231537 77 237 4.0 12.0 0.00 0.00 0.00 52 1004.2
20260504231036 77 267 3.0 15.0 0.00 0.00 0.00 53 1004.2
20260504230636 77 199 4.0 15.0 0.00 0.00 0.00 52 1004.3
20260504230109 77 178 6.0 12.0 0.00 0.00 0.00 51 1004.2
20260504225552 77 123 4.0 20.0 0.00 0.00 0.00 51 1004.1
20260504225051 77 169 5.0 20.0 0.00 0.00 0.00 51 1004.1
20260504224601 77 183 7.0 16.0 0.00 0.00 0.00 50 1004.1
20260504224049 78 259 4.0 12.0 0.00 0.00 0.00 51 1004.3
20260504223549 78 244 5.0 17.0 0.00 0.00 0.00 50 1004.1
20260504223049 78 265 8.0 20.0 0.00 0.00 0.00 49 1004.2
20260504222547 78 182 5.0 20.0 0.00 0.00 0.00 51 1004.1
20260504222046 78 180 6.0 20.0 0.00 0.00 0.00 50 1004.1
20260504221547 78 190 8.0 20.0 0.00 0.00 0.00 50 1004.1
20260504221046 78 193 6.0 20.0 0.00 0.00 0.00 50 1004.1
20260504220647 78 178 5.0 20.0 0.00 0.00 0.00 51 1004.1
20260504220053 79 248 6.0 14.0 0.00 0.00 0.00 51 1004.1
20260504215546 79 169 5.0 15.0 0.00 0.00 0.00 51 1004.0
20260504215045 79 157 3.0 17.0 0.00 0.00 0.00 52 1004.0
20260504214547 79 220 6.0 20.0 0.00 0.00 0.00 51 1004.0
20260504214045 79 212 7.0 20.0 0.00 0.00 0.00 50 1004.1
20260504213546 77 240 5.0 17.0 0.00 0.00 0.00 51 1004.1
20260504213046 77 323 7.0 16.0 0.00 0.00 0.00 52 1003.9
20260504212545 78 143 5.0 16.0 0.00 0.00 0.00 51 1004.2
20260504212045 78 298 7.0 21.0 0.00 0.00 0.00 51 1004.0
20260504211544 78 286 7.0 20.0 0.00 0.00 0.00 49 1004.1
20260504211043 78 208 7.0 20.0 0.00 0.00 0.00 50 1004.1
20260504210645 77 190 5.0 16.0 0.00 0.00 0.00 52 1004.2
20260504210059 78 235 6.0 16.0 0.00 0.00 0.00 51 1004.2
20260504205545 78 300 2.0 19.0 0.00 0.00 0.00 52 1004.2
20260504205044 78 310 7.0 19.0 0.00 0.00 0.00 51 1004.3
20260504204548 79 248 5.0 15.0 0.00 0.00 0.00 51 1004.6
20260504204044 80 115 4.0 13.0 0.00 0.00 0.00 52 1004.5
20260504203545 79 172 5.0 13.0 0.00 0.00 0.00 52 1004.8
20260504203045 78 319 5.0 12.0 0.00 0.00 0.00 52 1004.8
20260504202541 78 220 3.0 16.0 0.00 0.00 0.00 52 1005.1
20260504202040 80 233 8.0 16.0 0.00 0.00 0.00 48 1005.1
20260504201546 80 207 6.0 15.0 0.00 0.00 0.00 51 1005.3
20260504201038 80 173 4.0 21.0 0.00 0.00 0.00 51 1005.3
20260504200640 79 201 7.0 21.0 0.00 0.00 0.00 52 1005.5
20260504200050 77 192 5.0 14.0 0.00 0.00 0.00 55 1005.6
20260504195540 76 210 3.0 9.0 0.00 0.00 0.00 55 1005.7
20260504195040 76 211 5.0 14.0 0.00 0.00 0.00 53 1005.7
20260504194538 76 225 8.0 14.0 0.00 0.00 0.00 52 1005.8
20260504194037 77 147 3.0 12.0 0.00 0.00 0.00 53 1006.0
20260504193537 77 298 5.0 12.0 0.00 0.00 0.00 50 1006.1
20260504193041 78 167 3.0 12.0 0.00 0.00 0.00 55 1006.2
20260504192535 78 189 6.0 12.0 0.00 0.00 0.00 51 1006.2
20260504192037 77 205 4.0 12.0 0.00 0.00 0.00 52 1006.3
20260504191538 78 219 5.0 12.0 0.00 0.00 0.00 52 1006.3
20260504191036 79 115 4.0 21.0 0.00 0.00 0.00 50 1006.1
20260504190503 79 320 6.0 21.0 0.00 0.00 0.00 50 1006.1
20260504190101 79 262 7.0 20.0 0.00 0.00 0.00 51 1006.1
20260504190000 79 202 8.0 20.0 0.00 0.00 0.00 49 1006.2
20260504185559 79 331 6.0 19.0 0.00 0.00 0.00 49 1006.2
20260504185059 79 173 9.0 23.0 0.00 0.00 0.00 48 1006.3
20260504184600 79 196 5.0 22.0 0.00 0.00 0.00 50 1006.3
20260504184058 79 213 7.0 23.0 0.00 0.00 0.00 49 1006.2
20260504183558 79 250 4.0 23.0 0.00 0.00 0.00 52 1006.3
20260504183056 78 355 8.0 23.0 0.00 0.00 0.00 50 1006.3
20260504182559 79 163 6.0 14.0 0.00 0.00 0.00 52 1006.2
20260504182054 79 150 6.0 11.0 0.00 0.00 0.00 51 1006.3
20260504181556 78 199 4.0 14.0 0.00 0.00 0.00 50 1006.2
20260504181053 78 247 2.0 14.0 0.00 0.00 0.00 52 1006.3
20260504180654 78 294 4.0 14.0 0.00 0.00 0.00 52 1006.4
20260504180057 78 174 4.0 16.0 0.00 0.00 0.00 52 1006.4
20260504175657 78 197 5.0 16.0 0.00 0.00 0.00 51 1006.4
20260504175055 77 207 4.0 21.0 0.00 0.00 0.00 55 1006.4
20260504174557 77 190 9.0 21.0 0.00 0.00 0.00 52 1006.4
20260504174055 77 210 10.0 18.0 0.00 0.00 0.00 51 1006.4
20260504173553 77 168 4.0 19.0 0.00 0.00 0.00 53 1006.3
20260504173053 77 184 6.0 18.0 0.00 0.00 0.00 55 1006.3
20260504172552 77 147 4.0 14.0 0.00 0.00 0.00 52 1006.4
20260504172051 77 193 3.0 17.0 0.00 0.00 0.00 55 1006.6
20260504171550 76 237 4.0 21.0 0.00 0.00 0.00 55 1006.6
20260504171050 76 238 8.0 21.0 0.00 0.00 0.00 54 1006.7
20260504170648 76 240 6.0 18.0 0.00 0.00 0.00 53 1006.7
20260504151041 71 171 7.0 16.0 0.00 0.00 0.00 57 1007.6
20260504150640 70 181 2.0 16.0 0.00 0.00 0.00 60 1007.7
20260504141040 68 240 5.0 13.0 0.00 0.00 0.00 61 1008.4
20260504140509 67 192 4.0 14.0 0.00 0.00 0.00 63 1008.5
20260504130504 63 230 3.0 16.0 0.00 0.00 0.00 68 1008.8
20260504110651 61 257 3.0 7.0 0.00 0.00 0.00 69 1009.0
20260504081541 61 220 3.0 9.0 0.00 0.00 0.00 69 1009.5
20260504081038 62 173 2.0 8.0 0.00 0.00 0.00 68 1009.6
20260504080638 62 270 1.0 8.0 0.00 0.00 0.00 69 1009.4
20260504050649 63 168 3.0 8.0 0.00 0.00 0.00 67 1011.2
20260504045548 63 190 3.0 18.0 0.00 0.00 0.00 66 1011.3
20260504045044 63 153 3.0 10.0 0.00 0.00 0.00 66 1011.4
20260504044547 63 254 4.0 10.0 0.00 0.00 0.00 66 1011.3
20260504044044 63 200 4.0 12.0 0.00 0.00 0.00 66 1011.4
20260504043544 63 189 2.0 12.0 0.00 0.00 0.00 66 1011.5
20260504043107 63 176 3.0 9.0 0.00 0.00 0.00 66 1011.5
20260504042543 63 235 3.0 9.0 0.00 0.00 0.00 66 1011.4
20260504042046 63 200 4.0 9.0 0.00 0.00 0.00 66 1011.6
20260504041543 63 211 2.0 6.0 0.00 0.00 0.00 67 1011.7
20260504041043 63 205 2.0 7.0 0.00 0.00 0.00 67 1011.7
20260504040644 63 193 2.0 7.0 0.00 0.00 0.00 67 1011.7
20260504040043 63 194 3.0 8.0 0.00 0.00 0.00 67 1011.7
20260504035544 63 192 3.0 10.0 0.00 0.00 0.00 67 1011.8
20260504035043 63 169 3.0 10.0 0.00 0.00 0.00 66 1011.9
20260504034547 63 216 1.0 6.0 0.00 0.00 0.00 66 1012.0
20260504034043 63 196 2.0 6.0 0.00 0.00 0.00 66 1012.1
20260504033542 63 198 2.0 10.0 0.00 0.00 0.00 65 1012.1
20260504033042 64 200 2.0 10.0 0.00 0.00 0.00 65 1012.2
20260504032542 64 190 3.0 10.0 0.00 0.00 0.00 65 1012.2
20260504032042 63 196 3.0 11.0 0.00 0.00 0.00 65 1012.3
20260504031550 64 209 2.0 10.0 0.00 0.00 0.00 65 1012.4
20260504031044 63 220 4.0 10.0 0.00 0.00 0.00 65 1012.2
20260504030502 63 174 2.0 8.0 0.00 0.00 0.00 65 1012.4
20260504030002 63 205 2.0 8.0 0.00 0.00 0.00 65 1012.4
20260504025502 64 198 2.0 8.0 0.00 0.00 0.00 65 1012.3
20260504025004 64 176 2.0 7.0 0.00 0.00 0.00 65 1012.3
20260504024502 64 171 1.0 5.0 0.00 0.00 0.00 65 1012.4
20260504024001 63 191 2.0 7.0 0.00 0.00 0.00 66 1012.3
20260504023502 63 170 1.0 7.0 0.00 0.00 0.00 66 1012.3
20260504023002 63 186 0.0 5.0 0.00 0.00 0.00 67 1012.2
20260504022503 63 159 1.0 4.0 0.00 0.00 0.00 66 1012.1
20260504022000 63 190 1.0 6.0 0.00 0.00 0.00 66 1012.1
20260504021552 63 189 2.0 6.0 0.00 0.00 0.00 66 1011.4
20260504021051 63 197 2.0 5.0 0.00 0.00 0.00 66 1011.5
20260504020650 63 215 1.0 4.0 0.00 0.00 0.00 65 1011.4
20260504020045 63 192 1.0 6.0 0.00 0.00 0.00 66 1011.6
20260504015545 64 197 1.0 6.0 0.00 0.00 0.00 65 1011.5
20260504015045 63 194 1.0 3.0 0.00 0.00 0.00 65 1011.4
20260504014544 64 186 1.0 3.0 0.00 0.00 0.00 63 1011.3
20260504014044 65 194 1.0 8.0 0.00 0.00 0.00 62 1011.4
20260504013547 65 171 1.0 8.0 0.00 0.00 0.00 63 1011.3
20260504013050 64 171 1.0 4.0 0.00 0.00 0.00 63 1011.3
20260504012544 64 200 1.0 4.0 0.00 0.00 0.00 64 1011.3
20260504012044 64 186 1.0 4.0 0.00 0.00 0.00 63 1011.2
20260504011544 65 198 1.0 3.0 0.00 0.00 0.00 62 1011.2
20260504011046 65 190 0.0 5.0 0.00 0.00 0.00 62 1011.2
20260504010643 66 178 1.0 5.0 0.00 0.00 0.00 60 1011.0
20260504010053 68 194 2.0 6.0 0.00 0.00 0.00 58 1011.1
20260504005542 68 187 2.0 6.0 0.00 0.00 0.00 55 1011.0
20260504005043 69 165 2.0 6.0 0.00 0.00 0.00 55 1011.0
20260504004546 69 182 3.0 6.0 0.00 0.00 0.00 53 1010.9
20260504004042 70 188 2.0 7.0 0.00 0.00 0.00 53 1011.0
20260504003542 70 215 3.0 10.0 0.00 0.00 0.00 53 1011.0
20260504003043 71 197 1.0 11.0 0.00 0.00 0.00 52 1011.0
20260504002541 71 184 3.0 11.0 0.00 0.00 0.00 51 1010.9
20260504002041 72 211 4.0 10.0 0.00 0.00 0.00 50 1011.0
20260504001541 72 213 3.0 20.0 0.00 0.00 0.00 50 1011.0
20260504001043 72 200 4.0 20.0 0.00 0.00 0.00 49 1011.0
20260504000640 72 219 4.0 10.0 0.00 0.00 0.00 49 1011.0
20260504000038 73 169 4.0 11.0 0.00 0.00 0.00 49 1011.0
20260503235538 73 171 4.0 14.0 0.00 0.00 0.00 49 1011.0
20260503235038 73 155 3.0 14.0 0.00 0.00 0.00 48 1011.0